Regional Weather Roundup
Issued by NWS

Home | Current Version | Previous Version | Text Only | Print | Product List | Glossary Off
Versions: 1 2 3 4 5 6 7 8 9 10 11 12 13 14 15 16 17 18 19 20 21 22 23 24 25 26 27 28 29 30 31 32 33 34 35 36 37 38 39 40 41 42 43 44 45 46 47 48 49 50

000
ASUS44 KMEG 231710
RWRTN
TENNESSEE HOURLY STATE WEATHER ROUNDUP
NATIONAL WEATHER SERVICE MEMPHIS TN
1100 AM CST THU NOV 23 2017

TNZ002-004-019-021-049-052-054-088>092-231800-
WEST TENNESSEE

CITY           SKY/WX    TMP DP  RH WIND       PRES   REMARKS
MEMPHIS INTL   SUNNY     48  24  39 CALM      30.17F
NWS MEMPHIS      N/A     47 N/A N/A MISG        N/A
JACKSON        SUNNY     46  26  45 CALM      30.16F
DYERSBURG      SUNNY     45  26  47 E3        30.16F
SOMERVILLE     SUNNY     45  23  42 CALM      30.15F
COVINGTON      SUNNY     45  27  49 CALM      30.16F
UNION CITY     SUNNY     45  21  39 CALM      30.14F
BOLIVAR        SUNNY     46  23  39 VRB3      30.15F
PARIS          SUNNY     45  25  45 SE6       30.12F
HUNTINGDON     SUNNY     45  27  49 VRB3      30.13F
LEXINGTON      SUNNY     45  27  49 VRB3      30.15F
SELMER         SUNNY     45  25  45 CALM      30.14F
SAVANNAH       SUNNY     45  28  53 VRB6      30.14F HAZE
$$

TNZ008-025-027-028-033-062-065-066-231800-
NORTH MIDDLE TENNESSEE

CITY           SKY/WX    TMP DP  RH WIND       PRES   REMARKS
NASHVILLE      SUNNY     46  26  45 CALM      30.14F
PORTLAND       SUNNY     45  27  49 CALM      30.11F
CLARKSVILLE    SUNNY     44  26  49 VRB5      30.13F
SMYRNA         SUNNY     45  28  51 CALM      30.15F
COOKEVILLE     SUNNY     46  30  53 CALM      30.11F
GALLATIN       SUNNY     45  28  53 VRB3      30.15F
CROSSVILLE     MOSUNNY   46  27  47 NE5       30.09F
$$

TNZ061-075-076-078-094-096-097-231800-
SOUTH MIDDLE TENNESSEE

CITY           SKY/WX    TMP DP  RH WIND       PRES   REMARKS
FAYETTEVILLE   SUNNY     48  30  49 N7        30.10F
TULLAHOMA      SUNNY     48  28  46 CALM      30.10F
WINCHESTER     SUNNY     46  32  57 NW5       30.11F
MCMINNVILLE    SUNNY     45  30  57 CALM      30.11F
COLUMBIA       SUNNY     45  27  49 NE7       30.12F
SHELBYVILLE    SUNNY     46  30  53 N9        30.12F
$$

TNZ017-018-042-046-047-231800-
NORTHEAST TENNESSEE

CITY           SKY/WX    TMP DP  RH WIND       PRES   REMARKS
TRI CITIES     SUNNY     47  27  45 CALM      30.09F
ELIZABETHTON   SUNNY     50  30  46 S6        30.08F
$$

TNZ012-013-036-069-073-074-231800-
CENTRAL EAST TENNESSEE

CITY           SKY/WX    TMP DP  RH WIND       PRES   REMARKS
KNOXVILLE      PTSUNNY   49  34  56 N6        30.10F
OAK RIDGE      MOSUNNY   48  30  49 VRB3      30.12F
DOWNTOWN KNOXV MOSUNNY   48  32  53 VRB3      30.12F
GATLINBURG     SUNNY     48  32  53 CALM      30.10F
MORRISTOWN     PTSUNNY   46  27  46 CALM      30.09F
JACKSBORO      SUNNY     46  28  49 VRB3      30.14F
$$

TNZ083-085-099-231800-
SOUTHEAST TENNESSEE

CITY           SKY/WX    TMP DP  RH WIND       PRES   REMARKS
CHATTANOOGA    PTSUNNY   49  29  46 N8        30.11F
DAYTON         PTSUNNY   46  34  61 N9        30.11F
$$

SKY/WX REPORTED AS FAIR MEANS FEW OR NO CLOUDS BELOW
12 THOUSAND FEET.





USA.gov is the U.S. government's official web portal to all federal, state and local government web resources and services.